Date String (YYYY-MM-DD hh:mm:ss) UTC,Instrument flags,absolute air pressure of the measurement (hPa),sample flow rate (lpm),inlet stack bypass flow (lpm),air temperature of the measurement (°C),ambient temperature measured by the external sensor (°C),aerosol sample conditioner tube jacket temperature (°C),OPC LED temperature (°C),internal box temperature (°C),relative humidity of the measurement (%),span deviation,mass concentration of particles derived from Lorenz-Mie calculation of OPC scattering (μg/m³),mass concentration of particles derived from Lorenz-Mie calculation of OPC scattering (μg/m³),mass concentration of particles derived from Lorenz-Mie calculation of OPC scattering (μg/m³)
DateTimeUTC,F1_M11,P_M11,Q1_M11,Q2_M11,T1_M11,T2_M11,T3_M11,T4_M11,T5_M11,U1_M11,ZSPAN_M11,X0_M11,X2_M11,X1_M11
2024-04-15 13:00:00,SystemResetWarning,0819.0,4.99,000.00,025.5,024.8,000.0,034.1,027.4,007.7,0000.0,0009.05,0002.70,0001.82
2024-04-15 13:01:00,SystemResetWarning,0819.0,5.02,000.00,025.5,024.8,000.0,034.1,027.4,007.6,0000.0,0009.07,0002.61,0001.82
2024-04-15 13:02:00,SystemResetWarning,0819.0,5.00,000.00,025.5,024.8,000.0,034.1,027.4,007.6,0000.0,0008.66,0002.57,0001.82
2024-04-15 13:03:00,SystemResetWarning,0819.0,4.99,000.00,025.5,024.8,000.0,034.1,027.4,007.6,0000.0,0008.41,0002.61,0001.82
2024-04-15 13:04:00,SystemResetWarning,0819.0,4.99,000.00,025.5,024.7,000.0,034.1,027.4,007.6,0000.0,0008.62,0002.71,0001.82
2024-04-15 13:05:00,SystemResetWarning,0819.0,5.01,000.00,025.5,024.7,000.0,034.1,027.4,007.7,0000.0,0007.64,0002.71,0001.83
2024-04-15 13:06:00,SystemResetWarning,0819.0,5.01,000.00,025.5,024.7,000.0,034.1,027.4,007.7,0000.0,0007.53,0002.70,0001.86
2024-04-15 13:07:00,SystemResetWarning,0819.0,4.99,000.00,025.5,024.7,000.0,034.1,027.4,007.7,0000.0,0006.69,0002.73,0001.87
2024-04-15 13:08:00,SystemResetWarning,0819.0,4.99,000.00,025.5,024.7,000.0,034.1,027.4,007.7,0000.0,0007.51,0002.82,0001.89
2024-04-15 13:09:00,SystemResetWarning,0819.0,5.01,000.00,025.5,024.6,000.0,034.1,027.4,007.9,0000.0,0007.57,0002.83,0001.90
2024-04-15 13:10:00,SystemResetWarning,0819.0,5.01,000.00,025.5,024.6,000.0,034.1,027.3,008.0,0000.0,0007.58,0002.89,0001.91
2024-04-15 13:11:00,SystemResetWarning,0819.0,5.01,000.00,025.5,024.6,000.0,034.1,027.4,008.0,0000.0,0007.64,0003.05,0001.94
2024-04-15 13:12:00,SystemResetWarning,0819.0,5.00,000.00,025.5,024.6,000.0,034.1,027.3,008.1,0000.0,0007.89,0003.08,0001.94
2024-04-15 13:13:00,SystemResetWarning,0819.0,5.00,000.00,025.5,024.6,000.0,034.0,027.3,008.3,0000.0,0008.13,0003.11,0001.95
2024-04-15 13:14:00,SystemResetWarning,0819.0,5.00,000.00,025.5,024.6,000.0,034.0,027.3,008.3,0000.0,0008.64,0003.13,0001.95
2024-04-15 13:15:00,SystemResetWarning,0819.0,5.00,000.00,025.5,024.6,000.0,034.0,027.3,008.4,0000.0,0008.51,0003.13,0001.97
2024-04-15 13:16:00,SystemResetWarning,0819.0,5.00,000.00,025.5,024.6,000.0,034.0,027.3,008.6,0000.0,0008.61,0003.17,0001.98
2024-04-15 13:17:00,SystemResetWarning,0819.0,5.00,000.00,025.5,024.6,000.0,034.0,027.3,008.6,0000.0,0009.07,0003.24,0002.00
2024-04-15 13:18:00,SystemResetWarning,0819.0,5.00,000.00,025.5,024.6,000.0,034.0,027.3,008.8,0000.0,0010.33,0003.30,0002.04
2024-04-15 13:19:00,SystemResetWarning,0819.0,5.00,000.00,025.5,024.6,000.0,034.0,027.3,008.9,0000.0,0010.55,0003.28,0002.06
2024-04-15 13:20:00,SystemResetWarning,0819.0,5.00,000.00,025.5,024.6,000.0,034.0,027.3,009.1,0000.0,0011.02,0003.33,0002.10
2024-04-15 13:21:00,SystemResetWarning,0819.0,5.00,000.00,025.5,024.6,000.0,034.0,027.3,009.2,0000.0,0011.03,0003.36,0002.13
2024-04-15 13:22:00,SystemResetWarning,0819.0,5.00,000.00,025.5,024.6,000.0,034.0,027.3,009.0,0000.0,0012.33,0003.35,0002.15
2024-04-15 13:23:00,SystemResetWarning,0819.1,5.00,000.00,025.4,024.5,000.0,034.0,027.3,009.2,0000.0,0012.98,0003.41,0002.17
2024-04-15 13:24:00,SystemResetWarning,0819.1,5.00,000.00,025.4,024.5,000.0,034.0,027.3,009.6,0000.0,0012.71,0003.41,0002.19
2024-04-15 13:25:00,SystemResetWarning,0819.1,5.01,000.00,025.4,024.5,000.0,034.0,027.3,009.9,0000.0,0012.20,0003.42,0002.22
2024-04-15 13:26:00,SystemResetWarning,0819.1,5.00,000.00,025.4,024.6,000.0,034.0,027.3,009.6,0000.0,0012.25,0003.43,0002.24
2024-04-15 13:27:00,SystemResetWarning,0819.2,5.00,000.00,025.4,024.6,000.0,034.0,027.3,009.3,0000.0,0012.10,0003.38,0002.24
2024-04-15 13:28:00,SystemResetWarning,0819.1,5.00,000.00,025.4,024.6,000.0,034.0,027.3,009.3,0000.0,0011.79,0003.35,0002.25
2024-04-15 13:29:00,SystemResetWarning,0819.3,4.99,000.00,025.4,024.6,000.0,034.0,027.3,009.5,0000.0,0011.18,0003.35,0002.26
2024-04-15 13:30:00,SystemResetWarning,0819.1,5.00,000.00,025.4,024.6,000.0,034.0,027.3,009.5,0000.0,0010.59,0003.39,0002.26
2024-04-15 13:31:00,SystemResetWarning,0819.1,5.01,000.00,025.4,024.6,000.0,034.0,027.3,009.6,0000.0,0010.82,0003.38,0002.26
2024-04-15 13:32:00,SystemResetWarning,0819.1,5.01,000.00,025.5,024.7,000.0,034.0,027.3,009.5,0000.0,0010.90,0003.37,0002.25
2024-04-15 13:33:00,SystemResetWarning,0819.1,5.01,000.00,025.5,024.7,000.0,034.0,027.3,009.5,0000.0,0009.76,0003.33,0002.25
2024-04-15 13:34:00,SystemResetWarning,0819.1,4.98,000.00,025.5,024.7,000.0,034.0,027.3,009.3,0000.0,0008.96,0003.31,0002.26
2024-04-15 13:35:00,SystemResetWarning,0819.2,4.99,000.00,025.5,024.7,000.0,034.0,027.3,009.5,0000.0,0009.41,0003.33,0002.25
2024-04-15 13:36:00,SystemResetWarning,0819.4,5.00,000.00,025.5,024.7,000.0,034.0,027.3,009.6,0000.0,0010.34,0003.32,0002.25
2024-04-15 13:37:00,SystemResetWarning,0819.2,5.01,000.00,025.5,024.7,000.0,034.0,027.3,009.4,0000.0,0010.89,0003.33,0002.25
2024-04-15 13:38:00,SystemResetWarning,0819.1,5.02,000.00,025.5,024.7,000.0,034.0,027.3,009.4,0000.0,0011.03,0003.37,0002.25
2024-04-15 13:39:00,SystemResetWarning,0819.2,4.99,000.00,025.5,024.7,000.0,034.0,027.3,009.4,0000.0,0011.06,0003.39,0002.24
2024-04-15 13:40:00,SystemResetWarning,0819.2,4.99,000.00,025.5,024.7,000.0,034.0,027.4,009.3,0000.0,0010.60,0003.37,0002.24
2024-04-15 13:41:00,SystemResetWarning,0819.2,5.01,000.00,025.5,024.7,000.0,034.0,027.4,009.5,0000.0,0010.33,0003.37,0002.26
2024-04-15 13:42:00,SystemResetWarning,0819.3,5.01,000.00,025.5,024.7,000.0,034.0,027.4,009.5,0000.0,0009.77,0003.40,0002.27
2024-04-15 13:43:00,SystemResetWarning,0819.3,5.01,000.00,025.5,024.7,000.0,034.0,027.4,009.6,0000.0,0010.22,0003.41,0002.28
2024-04-15 13:44:00,SystemResetWarning,0819.3,5.00,000.00,025.5,024.7,000.0,034.0,027.4,009.7,0000.0,0010.42,0003.44,0002.28
2024-04-15 13:45:00,SystemResetWarning,0819.3,4.99,000.00,025.5,024.7,000.0,034.0,027.4,009.7,0000.0,0010.70,0003.47,0002.28
2024-04-15 13:46:00,SystemResetWarning,0819.3,4.99,000.00,025.5,024.7,000.0,034.0,027.3,009.7,0000.0,0010.80,0003.50,0002.31
2024-04-15 13:47:00,SystemResetWarning,0819.2,5.01,000.00,025.5,024.7,000.0,034.0,027.4,009.7,0000.0,0011.57,0003.57,0002.32
2024-04-15 13:48:00,SystemResetWarning,0819.2,5.01,000.00,025.5,024.7,000.0,034.0,027.4,009.7,0000.0,0011.32,0003.58,0002.33
2024-04-15 13:49:00,SystemResetWarning,0819.2,5.01,000.00,025.5,024.7,000.0,034.0,027.4,009.8,0000.0,0011.44,0003.62,0002.35
2024-04-15 13:50:00,SystemResetWarning,0819.1,5.00,000.00,025.5,024.7,000.0,034.0,027.4,009.8,0000.0,0011.47,0003.62,0002.37
2024-04-15 13:51:00,SystemResetWarning,0819.2,5.00,000.00,025.5,024.7,000.0,034.0,027.4,010.0,0000.0,0011.68,0003.63,0002.37
2024-04-15 13:52:00,SystemResetWarning,0819.1,5.00,000.00,025.6,024.7,000.0,034.0,027.4,010.0,0000.0,0011.81,0003.62,0002.35
2024-04-15 13:53:00,SystemResetWarning,0819.1,4.99,000.00,025.6,024.7,000.0,034.0,027.4,010.0,0000.0,0011.64,0003.63,0002.35
2024-04-15 13:54:00,SystemResetWarning,0819.1,5.00,000.00,025.6,024.7,000.0,034.0,027.4,010.0,0000.0,0011.25,0003.65,0002.36
2024-04-15 13:55:00,SystemResetWarning,0819.1,5.00,000.00,025.6,024.7,000.0,034.0,027.4,009.8,0000.0,0011.45,0003.67,0002.37
2024-04-15 13:56:00,SystemResetWarning,0819.2,5.00,000.00,025.6,024.8,000.0,034.1,027.4,009.9,0000.0,0010.84,0003.64,0002.38
2024-04-15 13:57:00,SystemResetWarning,0819.2,5.01,000.00,025.6,024.8,000.0,034.1,027.4,010.0,0000.0,0010.93,0003.63,0002.36
2024-04-15 13:58:00,SystemResetWarning,0819.2,5.00,000.00,025.6,024.8,000.0,034.1,027.4,010.1,0000.0,0009.51,0003.62,0002.37
2024-04-15 13:59:00,SystemResetWarning,0819.2,4.99,000.00,025.6,024.8,000.0,034.1,027.5,010.1,0000.0,0009.41,0003.62,0002.36
